[[{"header":{"parameterUnit":"m.s-1","parameterCategory":1,"la1":30.2992,"la2":30.254,"lo1":-89.0895,"lo2":-89.0443,"dy":0.0025,"dx":0.0025,"nx":19,"ny":19,"refTime":"2026-04-12T03:00:00:Z","depth":0,"parameterNumber":2,"parameterNumberName":"U-component_of_WINDS"},"data":[0,0,0,-1.7767,-1.777,-1.7938,-1.7939,-1.8143,-1.8145,0,0,0,0,0,0,0,0,0,0,0,-1.7708,-1.7709,-1.7766,-1.777,-1.7938,-1.7939,-1.8143,-1.8145,0,0,0,0,0,0,0,0,0,0,0,-1.7708,-1.7709,-1.771,-1.7771,-1.7938,-1.7939,-1.8142,-1.802,0,0,0,0,0,0,0,0,0,0,-1.7859,-1.7796,-1.7709,-1.771,-1.7772,-1.7937,-1.7939,-1.8014,-1.8028,-1.8062,0,-1.8087,0,-1.8119,-1.8158,-1.8158,0,0,0,-1.7778,-1.7785,-1.7838,-1.771,-1.7773,-1.7937,-1.7864,-1.8022,-1.8037,-1.808,-1.809,-1.8098,-1.8122,-1.8159,-1.816,-1.8325,-1.8326,0,0,-1.7769,-1.7734,-1.7827,-1.7847,-1.7817,-1.7859,-1.7869,-1.8031,-1.8042,-1.8091,-1.8103,-1.8126,-1.816,-1.8162,-1.8325,-1.8326,0,0,0,-1.7737,-1.7727,-1.7777,-1.7838,-1.7869,-1.7864,-1.7876,-1.8035,-1.8054,-1.8106,-1.8128,-1.8161,-1.8164,-1.8325,-1.8325,-1.8311,0,0,0,-1.7732,-1.7709,-1.7772,-1.7753,-1.7865,-1.7953,-1.7875,-1.8042,-1.8062,-1.8127,-1.8161,-1.8165,-1.8324,-1.8325,-1.8311,-1.8311,0,0,0,-1.77,-1.7706,-1.7726,-1.7751,-1.7821,-1.7952,-1.798,-1.8047,-1.8075,-1.8158,-1.8166,-1.8324,-1.8325,-1.831,-1.831,-1.8344,0,0,0,-1.7658,-1.7713,-1.7725,-1.7797,-1.782,-1.7941,-1.7979,-1.8072,-1.8142,-1.8162,-1.8324,-1.8325,-1.831,-1.8309,-1.8343,-1.8365,-1.8371,0,0,-1.7709,-1.7718,-1.7763,-1.7779,-1.7888,-1.7918,-1.8027,-1.8125,-1.8166,-1.8271,-1.8275,-1.8311,-1.831,-1.8343,-1.8418,-1.8422,0,0,0,-1.7767,-1.7798,-1.7835,-1.7898,-1.7972,-1.8037,-1.8121,-1.8158,-1.8248,-1.8212,-1.8334,-1.8334,-1.8355,-1.8368,-1.8371,-1.8392,-1.8329,-1.8329,-1.8329,-1.779,-1.7837,-1.7914,-1.7981,-1.8043,-1.8129,-1.8184,-1.8248,-1.828,-1.8308,-1.8339,-1.8378,-1.8391,-1.8394,-1.8415,-1.8355,-1.8355,-1.8355,-1.8355,-1.7868,-1.792,-1.7959,-1.8048,-1.8099,-1.8175,-1.8261,-1.8281,-1.836,-1.8358,-1.838,-1.8372,-1.8397,-1.8418,-1.8354,-1.8355,-1.8355,-1.8355,-1.8355,-1.7888,-1.7921,-1.7963,-1.8059,-1.8129,-1.8197,-1.8271,-1.8315,-1.8358,-1.8379,-1.8417,-1.8417,-1.8423,-1.8394,-1.8394,-1.8394,-1.8394,-1.8394,-1.8395,-1.7892,-1.794,-1.7995,-1.8078,-1.8124,-1.8191,-1.8279,-1.8327,-1.8392,-1.8419,-1.842,-1.8449,-1.839,-1.8374,-1.8397,-1.8396,-1.8396,-1.8396,-1.8396,-1.7954,-1.7946,-1.8031,-1.8078,-1.8179,-1.8246,-1.8301,-1.8395,-1.8442,-1.8477,-1.8503,-1.8452,-1.8466,-1.8463,-1.845,-1.8491,-1.8491,-1.8491,-1.8491,-1.797,-1.7981,-1.8077,-1.8148,-1.8224,-1.8282,-1.838,-1.8449,-1.852,-1.8552,-1.8553,-1.854,-1.8535,-1.8552,-1.8548,-1.8536,-1.8598,-1.8598,-1.8599,-1.8011,-1.803,-1.8103,-1.8169,-1.8252,-1.8323,-1.8416,-1.8499,-1.8579,-1.8604,-1.8579,-1.8574,-1.8554,-1.8545,-1.8568,-1.856,-1.8541,0,0]},{"header":{"parameterUnit":"m.s-1","parameterCategory":1,"la1":30.2992,"la2":30.254,"lo1":-89.0895,"lo2":-89.0443,"dy":0.0025,"dx":0.0025,"nx":19,"ny":19,"refTime":"2026-04-12T03:00:00:Z","depth":0,"parameterNumber":3,"parameterNumberName":"V-component_of_WINDS"},"data":[0,0,0,4.6398,4.6401,4.6541,4.6541,4.6724,4.6725,0,0,0,0,0,0,0,0,0,0,0,4.6363,4.6364,4.6398,4.6402,4.654,4.6541,4.6723,4.6725,0,0,0,0,0,0,0,0,0,0,0,4.6362,4.6364,4.6366,4.6402,4.654,4.6541,4.6723,4.6616,0,0,0,0,0,0,0,0,0,0,4.6479,4.6453,4.6363,4.6366,4.6403,4.654,4.6541,4.661,4.6622,4.6664,0,4.6705,0,4.6718,4.6738,4.6739,0,0,0,4.6396,4.6443,4.6476,4.6366,4.6404,4.654,4.6476,4.6617,4.663,4.668,4.6707,4.6714,4.6721,4.6739,4.674,4.7003,4.7004,0,0,4.6389,4.639,4.6467,4.6485,4.6467,4.6472,4.6481,4.6625,4.6654,4.6708,4.6718,4.6724,4.6741,4.6742,4.7001,4.7003,0,0,0,4.637,4.6385,4.6414,4.6478,4.6503,4.6476,4.6486,4.6648,4.6657,4.672,4.6726,4.6742,4.6744,4.7,4.7002,4.7077,0,0,0,4.6365,4.6374,4.6411,4.6413,4.65,4.6578,4.6506,4.6647,4.6663,4.6726,4.6742,4.6746,4.6998,4.7001,4.7072,4.7112,0,0,0,4.6352,4.6373,4.6395,4.6413,4.6473,4.6575,4.6593,4.665,4.6668,4.6739,4.6747,4.6997,4.7001,4.7067,4.7104,4.7181,0,0,0,4.6337,4.6459,4.6396,4.6535,4.6472,4.6622,4.6592,4.6702,4.6773,4.6743,4.6999,4.7002,4.7065,4.7099,4.7176,4.7246,4.7276,0,0,4.6492,4.6478,4.6559,4.6507,4.6668,4.66,4.6771,4.6833,4.6837,4.6946,4.6953,4.7073,4.7103,4.718,4.7444,4.7468,0,0,0,4.6608,4.6667,4.6709,4.6778,4.6829,4.6875,4.6911,4.6933,4.7027,4.6895,4.7122,4.714,4.7185,4.7218,4.7239,4.7276,4.7018,4.7017,4.7017,4.6829,4.6829,4.6963,4.698,4.7047,4.7082,4.7135,4.7171,4.7151,4.7204,4.7237,4.7397,4.7437,4.7452,4.7491,4.7275,4.7275,4.7275,4.7275,4.7055,4.7137,4.7108,4.7228,4.7227,4.7326,4.7365,4.7347,4.7437,4.7373,4.7412,4.7341,4.7478,4.7512,4.7281,4.728,4.7279,4.7279,4.7278,4.7199,4.7238,4.7265,4.7364,4.7439,4.7451,4.754,4.7535,4.753,4.757,4.7602,4.7601,4.7598,4.7586,4.7586,4.7587,4.7587,4.7588,4.7588,4.7337,4.7365,4.7442,4.7508,4.755,4.7606,4.7642,4.7683,4.7727,4.7716,4.7716,4.769,4.7492,4.7442,4.7597,4.7595,4.7594,4.7593,4.7593,4.7565,4.7513,4.7632,4.7675,4.775,4.7825,4.7818,4.7902,4.7935,4.7978,4.7943,4.7799,4.7783,4.7767,4.7725,4.7944,4.7944,4.7944,4.7944,4.7686,4.7678,4.7799,4.7868,4.7935,4.7941,4.8072,4.8101,4.8122,4.8142,4.811,4.8055,4.8038,4.8032,4.801,4.7971,4.8248,4.8248,4.8249,4.7826,4.7824,4.7939,4.7962,4.802,4.8069,4.8192,4.827,4.8283,4.8261,4.8157,4.8145,4.8055,4.8026,4.8001,4.7967,4.7895,0,0]}]]